Weather History for KEBG - August, 2014

Change the Weather History Date:

Sunday, August 10, 2014

  Actual Average (KMFE) Record (KMFE)
Temperature  
Mean Temperature 90 °F 88 °F  
Max Temperature 103 °F 99 °F 104 °F (1962)
Min Temperature 77 °F 77 °F 69 °F (1950)
Degree Days  
Heating Degree Days 0 0  
Month to date heating degree days 0  
Since 1 June heating degree days 0  
Since 1 July heating degree days 0  
Cooling Degree Days 25 23  
Month to date cooling degree days 229  
Year to date cooling degree days 2786  
Since 1 June cooling degree days 1531  
Growing Degree Days 40 (Base 50)    
Moisture  
Dew Point 72 °F    
Average Humidity 62    
Maximum Humidity 91    
Minimum Humidity 25    
Precipitation  
Precipitation 0.00 in 0.05 in 7.81 in (1980)
Month to date precipitation 0.48  
Year to date precipitation 11.84  
Sea Level Pressure  
Sea Level Pressure 29.96 in    
Wind  
Wind Speed 7 mph (SE)    
Max Wind Speed 21 mph    
Max Gust Speed 25 mph    
Visibility 9 miles    
Events      
T = Trace of Precipitation, MM = Missing Value Source: NWS Daily Summary

Daily Weather History Graph

Daily Weather History Graph

Search for Another Location

Airport or City:

Trip Planner

Search our weather history database for the weather conditions in past years. The results will help you decide how hot, cold, wet, or windy it might be!

Date:

Astronomy

Aug. 10, 2014 Rise Set
Actual Time 7:02 AM CDT 8:13 PM CDT
Civil Twilight 6:37 AM CDT 8:37 PM CDT
Nautical Twilight 6:08 AM CDT 9:06 PM CDT
Astronomical Twilight 5:38 AM CDT 9:36 PM CDT
Moon 8:09 PM CDT (8/10) 6:51 AM CDT (8/10)
Length of Visible Light 13h 59m
Length of Day
13h 10m
Full, 100% of the Moon is Illuminated
Aug 10
Full
Aug 10
Full
Aug 17
Last Quarter
Aug 25
New
Sep 2
First Quarter

Hourly Weather History & Observations

Time (CDT) Temp. Heat Index Dew Point Humidity Pressure Visibility Wind Dir Wind Speed Gust Speed Precip Events Conditions
12:15 AM 81.9 °F 88.5 °F 75.2 °F 80% 30.01 in 10.0 mi SE 4.6 mph - N/A   Scattered Clouds
12:35 AM 81.7 °F 88.3 °F 75.2 °F 81% 30.01 in 10.0 mi ESE 5.8 mph - N/A   Scattered Clouds
12:55 AM 81.7 °F 88.3 °F 75.4 °F 81% 30.01 in 10.0 mi ESE 5.8 mph - N/A   Clear
1:15 AM 81.7 °F 88.5 °F 75.7 °F 82% 30.01 in 10.0 mi ESE 5.8 mph - N/A   Clear
1:35 AM 81.7 °F 88.7 °F 76.1 °F 83% 30.00 in 10.0 mi ESE 5.8 mph - N/A   Clear
1:55 AM 81.5 °F 88.5 °F 76.1 °F 84% 30.00 in 10.0 mi SE 5.8 mph - N/A   Scattered Clouds
2:15 AM 81.3 °F 88.0 °F 76.1 °F 84% 29.99 in 10.0 mi SE 5.8 mph - N/A   Scattered Clouds
2:35 AM 80.8 °F 86.9 °F 75.9 °F 85% 29.99 in 10.0 mi SE 4.6 mph - N/A   Clear
2:55 AM 80.6 °F 86.6 °F 76.1 °F 86% 29.98 in 10.0 mi SE 4.6 mph - N/A   Clear
3:15 AM 79.9 °F - 75.7 °F 87% 29.97 in 10.0 mi SE 4.6 mph - N/A   Clear
3:35 AM 79.0 °F - 75.2 °F 88% 29.97 in 10.0 mi SE 3.5 mph - N/A   Clear
3:55 AM 79.0 °F - 75.2 °F 88% 29.96 in 10.0 mi SE 4.6 mph - N/A   Clear
4:15 AM 78.8 °F - 75.2 °F 89% 29.96 in 7.0 mi SE 4.6 mph - N/A   Clear
4:35 AM 78.8 °F - 75.2 °F 89% 29.95 in 7.0 mi SE 5.8 mph - N/A   Clear
4:55 AM 78.8 °F - 75.2 °F 89% 29.96 in 7.0 mi SE 4.6 mph - N/A   Clear
5:15 AM 78.3 °F - 74.8 °F 89% 29.96 in 7.0 mi SE 3.5 mph - N/A   Clear
5:35 AM 77.9 °F - 74.7 °F 90% 29.96 in 7.0 mi SE 4.6 mph - N/A   Clear
5:55 AM 77.5 °F - 74.3 °F 90% 29.96 in 7.0 mi SE 3.5 mph - N/A   Clear
6:15 AM 77.5 °F - 74.3 °F 90% 29.96 in 7.0 mi SE 3.5 mph - N/A   Clear
6:35 AM 77.4 °F - 74.3 °F 90% 29.97 in 5.0 mi SE 3.5 mph - N/A   Clear
6:55 AM 78.1 °F - 75.2 °F 91% 29.97 in 5.0 mi Calm Calm - N/A   Clear
7:15 AM 78.3 °F - 75.2 °F 90% 29.97 in 5.0 mi Calm Calm - N/A   Clear
7:35 AM 78.3 °F - 75.2 °F 90% 29.98 in 4.0 mi Calm Calm - N/A   Scattered Clouds
7:55 AM 79.2 °F - 76.1 °F 90% 29.98 in 5.0 mi SE 4.6 mph - N/A   Scattered Clouds
8:15 AM 80.2 °F 86.3 °F 77.0 °F 90% 29.99 in 7.0 mi SE 4.6 mph - N/A   Clear
8:35 AM 82.2 °F 91.3 °F 77.9 °F 87% 29.99 in 10.0 mi South 3.5 mph - N/A   Clear
8:55 AM 84.9 °F 95.7 °F 77.5 °F 78% 29.99 in 10.0 mi South 6.9 mph - N/A   Clear
9:15 AM 85.6 °F 96.4 °F 77.0 °F 75% 29.99 in 10.0 mi South 6.9 mph - N/A   Scattered Clouds
9:35 AM 86.9 °F 97.3 °F 76.1 °F 70% 30.00 in 10.0 mi South 8.1 mph - N/A   Scattered Clouds
9:55 AM 88.7 °F 99.3 °F 75.4 °F 65% 30.00 in 10.0 mi SSE 9.2 mph - N/A   Mostly Cloudy
10:15 AM 88.5 °F 98.3 °F 74.8 °F 64% 30.00 in 10.0 mi SSE 9.2 mph - N/A   Scattered Clouds
10:35 AM 90.7 °F 100.1 °F 74.3 °F 58% 30.00 in 10.0 mi SSE 10.4 mph - N/A   Scattered Clouds
10:55 AM 92.3 °F 100.9 °F 73.0 °F 53% 30.00 in 10.0 mi South 10.4 mph - N/A   Scattered Clouds
11:15 AM 92.8 °F 100.3 °F 71.4 °F 50% 30.00 in 10.0 mi SSE 13.8 mph 18.4 mph N/A   Scattered Clouds
11:35 AM 94.5 °F 101.4 °F 70.9 °F 46% 30.00 in 10.0 mi SE 12.7 mph 16.1 mph N/A   Scattered Clouds
11:55 AM 94.1 °F 101.2 °F 71.2 °F 47% 30.00 in 10.0 mi South 12.7 mph 21.9 mph N/A   Scattered Clouds
12:15 PM 94.1 °F 100.6 °F 70.7 °F 46% 30.00 in 10.0 mi South 11.5 mph 18.4 mph N/A   Mostly Cloudy
12:35 PM 96.4 °F 103.0 °F 69.8 °F 42% 30.00 in 10.0 mi South 12.7 mph - N/A   Scattered Clouds
12:55 PM 95.4 °F 101.4 °F 69.6 °F 43% 29.99 in 10.0 mi South 12.7 mph 17.3 mph N/A   Scattered Clouds
1:15 PM 97.0 °F 103.5 °F 69.4 °F 41% 29.99 in 10.0 mi SSE 9.2 mph - N/A   Scattered Clouds
1:35 PM 97.5 °F 102.6 °F 68.0 °F 38% 29.98 in 10.0 mi SSE 15.0 mph 19.6 mph N/A   Scattered Clouds
1:55 PM 97.9 °F 104.0 °F 68.9 °F 39% 29.97 in 10.0 mi South 8.1 mph - N/A   Scattered Clouds
2:15 PM 98.6 °F 102.2 °F 66.0 °F 34% 29.96 in 10.0 mi SSE 13.8 mph 18.4 mph N/A   Scattered Clouds
2:35 PM 99.7 °F 103.6 °F 65.5 °F 33% 29.95 in 10.0 mi SSE 9.2 mph 17.3 mph N/A   Scattered Clouds
2:55 PM 101.5 °F 104.3 °F 64.0 °F 29% 29.95 in 10.0 mi SE 9.2 mph 18.4 mph N/A   Scattered Clouds
3:15 PM 101.3 °F 103.3 °F 63.0 °F 28% 29.94 in 10.0 mi SSE 12.7 mph 18.4 mph N/A   Scattered Clouds
3:35 PM 101.3 °F 102.7 °F 61.7 °F 27% 29.93 in 10.0 mi SSE 8.1 mph - N/A   Scattered Clouds
3:55 PM 102.0 °F 103.3 °F 61.3 °F 26% 29.92 in 10.0 mi SE 12.7 mph - N/A   Scattered Clouds
4:15 PM 103.1 °F 104.5 °F 61.2 °F 25% 29.91 in 10.0 mi SE 8.1 mph 20.7 mph N/A   Scattered Clouds
4:35 PM 101.7 °F 103.9 °F 62.6 °F 28% 29.90 in 10.0 mi SSE 12.7 mph - N/A   Scattered Clouds
4:55 PM 101.5 °F 104.3 °F 63.3 °F 29% 29.89 in 10.0 mi SE 12.7 mph 19.6 mph N/A   Clear
5:15 PM 101.5 °F 104.3 °F 63.9 °F 29% 29.89 in 10.0 mi ESE 9.2 mph 20.7 mph N/A   Mostly Cloudy
5:35 PM 102.6 °F 105.5 °F 63.9 °F 28% 29.88 in 10.0 mi SE 15.0 mph 25.3 mph N/A   Mostly Cloudy
5:55 PM 100.2 °F 102.7 °F 64.0 °F 30% 29.88 in 10.0 mi SE 10.4 mph - N/A   Mostly Cloudy
6:35 PM 98.2 °F 101.6 °F 65.3 °F 34% 29.88 in 10.0 mi ESE 20.7 mph 24.2 mph N/A   Overcast
6:55 PM 95.9 °F 99.6 °F 66.6 °F 38% 29.88 in 10.0 mi SE 17.3 mph - N/A   Scattered Clouds
7:15 PM 95.0 °F 99.0 °F 67.1 °F 40% 29.88 in 10.0 mi SE 15.0 mph 21.9 mph N/A   Scattered Clouds
7:35 PM 93.7 °F 98.2 °F 68.4 °F 43% 29.89 in 10.0 mi SE 16.1 mph 25.3 mph N/A   Scattered Clouds
7:55 PM 92.7 °F 97.7 °F 68.9 °F 46% 29.90 in 10.0 mi SE 16.1 mph 23.0 mph N/A   Clear
8:15 PM 91.6 °F 96.7 °F 69.3 °F 48% 29.91 in 10.0 mi SE 12.7 mph 21.9 mph N/A   Clear
8:35 PM 90.5 °F 95.5 °F 69.6 °F 50% 29.92 in 10.0 mi SE 13.8 mph - N/A   Clear
8:55 PM 89.6 °F 95.2 °F 70.3 °F 53% 29.93 in 10.0 mi SE 12.7 mph - N/A   Clear
9:15 PM 88.3 °F 95.9 °F 72.9 °F 60% 29.94 in 10.0 mi ESE 10.4 mph 17.3 mph N/A   Clear
9:35 PM 87.8 °F 95.6 °F 73.4 °F 62% 29.96 in 10.0 mi ESE 8.1 mph - N/A   Clear
9:55 PM 86.9 °F 94.5 °F 73.6 °F 64% 29.97 in 10.0 mi ESE 8.1 mph - N/A   Clear
10:15 PM 86.0 °F 94.2 °F 74.3 °F 68% 29.98 in 10.0 mi ESE 6.9 mph - N/A   Clear
10:55 PM 85.1 °F 92.9 °F 74.5 °F 70% 30.00 in 10.0 mi SE 9.2 mph - N/A   Clear
11:15 PM 84.4 °F 92.0 °F 74.5 °F 72% 30.00 in 10.0 mi SE 6.9 mph - N/A   Clear
11:35 PM 83.7 °F 91.3 °F 74.8 °F 75% 30.01 in 10.0 mi SE 4.6 mph - N/A   Clear
11:55 PM 83.1 °F 90.7 °F 75.2 °F 77% 30.02 in 10.0 mi SE 3.5 mph - N/A   Clear